When you browse on this site, cookies collect data to enhance your experience and personalize the content and advertising you see.
Visit our Privacy Policy to learn more. By continuing to use the site, you agree to this use of cookies and data.
  • en France
  • Liste des pays
  • À 7 jours
  • Température de l'eau
  • Carte météo
  • Widgets météo
  • user-avatar
    Se connecter

    Météo par heure à North-Horr

    Ce jour, 1 Juin, Lundi

    Heure Température Précipitation Vent Pression Humidité
    00:00 +33°C° 0 mm 9 m/s 726 mmHg 44%
    01:00 +32°C° 0 mm 9 m/s 725 mmHg 49%
    02:00 +31°C° 0 mm 9 m/s 725 mmHg 53%
    03:00 +31°C° 0 mm 9 m/s 726 mmHg 56%
    04:00 +29°C° 0 mm 8 m/s 726 mmHg 59%
    05:00 +29°C° 0 mm 8 m/s 727 mmHg 63%
    06:00 +29°C° 0 mm 8 m/s 727 mmHg 60%
    07:00 +31°C° 0 mm 9 m/s 728 mmHg 57%
    08:00 +32°C° 0 mm 9 m/s 728 mmHg 54%
    09:00 +34°C° 0 mm 9 m/s 728 mmHg 48%
    10:00 +35°C° 0 mm 9 m/s 727 mmHg 42%
    11:00 +38°C° 0 mm 8 m/s 727 mmHg 37%
    12:00 +39°C° 0 mm 8 m/s 726 mmHg 34%
    13:00 +39°C° 0 mm 7 m/s 725 mmHg 31%
    14:00 +40°C° 0 mm 7 m/s 725 mmHg 29%
    15:00 +40°C° 0 mm 7 m/s 724 mmHg 29%
    16:00 +39°C° 0 mm 7 m/s 724 mmHg 30%
    17:00 +39°C° 0 mm 8 m/s 724 mmHg 31%
    18:00 +38°C° 0 mm 8 m/s 724 mmHg 32%
    19:00 +37°C° 0 mm 8 m/s 725 mmHg 34%
    20:00 +35°C° 0 mm 8 m/s 725 mmHg 36%
    21:00 +35°C° 0 mm 8 m/s 725 mmHg 37%
    22:00 +34°C° 0 mm 8 m/s 725 mmHg 38%
    23:00 +34°C° 0 mm 9 m/s 725 mmHg 39%

    Demain, 2 Juin, Mardi

    Heure Température Précipitation Vent Pression Humidité
    00:00 +33°C° 0 mm 9 m/s 725 mmHg 42%
    01:00 +32°C° 0 mm 9 m/s 725 mmHg 46%
    02:00 +31°C° 0 mm 9 m/s 725 mmHg 50%
    03:00 +31°C° 0 mm 9 m/s 725 mmHg 54%
    04:00 +29°C° 0 mm 9 m/s 725 mmHg 58%
    05:00 +28°C° 0 mm 9 m/s 726 mmHg 61%
    06:00 +29°C° 0 mm 10 m/s 726 mmHg 59%
    07:00 +29°C° 0 mm 10 m/s 727 mmHg 56%
    08:00 +31°C° 0 mm 10 m/s 727 mmHg 53%
    09:00 +33°C° 0 mm 10 m/s 727 mmHg 47%
    10:00 +35°C° 0 mm 9 m/s 727 mmHg 41%
    11:00 +37°C° 0 mm 8 m/s 727 mmHg 35%
    12:00 +38°C° 0 mm 8 m/s 726 mmHg 33%
    13:00 +39°C° 0 mm 7 m/s 725 mmHg 31%
    14:00 +40°C° 0 mm 7 m/s 724 mmHg 29%
    15:00 +39°C° 0 mm 7 m/s 724 mmHg 29%
    16:00 +39°C° 0 mm 8 m/s 724 mmHg 30%
    17:00 +38°C° 0 mm 8 m/s 723 mmHg 30%
    18:00 +38°C° 0 mm 8 m/s 724 mmHg 33%
    19:00 +37°C° 0 mm 8 m/s 724 mmHg 35%
    20:00 +35°C° 0 mm 8 m/s 725 mmHg 37%
    21:00 +34°C° 0 mm 9 m/s 725 mmHg 40%
    22:00 +33°C° 0 mm 9 m/s 725 mmHg 42%
    23:00 +33°C° 0 mm 10 m/s 725 mmHg 45%

    Après-demain, 3 Juin, Mercredi

    Heure Température Précipitation Vent Pression Humidité
    00:00 +32°C° 0 mm 10 m/s 725 mmHg 50%
    01:00 +31°C° 0 mm 10 m/s 725 mmHg 54%
    02:00 +29°C° 0 mm 10 m/s 725 mmHg 58%
    03:00 +29°C° 0 mm 10 m/s 725 mmHg 59%
    04:00 +28°C° 0 mm 10 m/s 725 mmHg 60%
    05:00 +28°C° 0 mm 9 m/s 725 mmHg 62%
    06:00 +28°C° 0 mm 9 m/s 726 mmHg 58%
    07:00 +29°C° 0 mm 9 m/s 727 mmHg 55%
    08:00 +31°C° 0 mm 10 m/s 727 mmHg 52%
    09:00 +33°C° 0 mm 9 m/s 727 mmHg 47%
    10:00 +34°C° 0 mm 9 m/s 727 mmHg 41%
    11:00 +37°C° 0 mm 8 m/s 726 mmHg 36%
    12:00 +38°C° 0 mm 7 m/s 725 mmHg 34%
    13:00 +38°C° 0 mm 7 m/s 725 mmHg 32%
    14:00 +39°C° 0 mm 6 m/s 724 mmHg 30%
    15:00 +39°C° 0 mm 7 m/s 724 mmHg 31%
    16:00 +38°C° 0 mm 7 m/s 723 mmHg 32%
    17:00 +38°C° 0 mm 8 m/s 723 mmHg 32%
    18:00 +37°C° 0 mm 8 m/s 724 mmHg 34%
    19:00 +35°C° 0 mm 8 m/s 724 mmHg 36%
    20:00 +34°C° 0 mm 8 m/s 725 mmHg 38%
    21:00 +34°C° 0 mm 9 m/s 725 mmHg 41%
    22:00 +33°C° 0 mm 9 m/s 725 mmHg 43%
    23:00 +32°C° 0 mm 9 m/s 725 mmHg 46%

    4 Juin, Jeudi

    Heure Température Précipitation Vent Pression Humidité
    00:00 +32°C° 0 mm 9 m/s 725 mmHg 47%
    01:00 +31°C° 0 mm 9 m/s 725 mmHg 49%
    02:00 +31°C° 0 mm 9 m/s 724 mmHg 51%
    03:00 +29°C° 0 mm 9 m/s 725 mmHg 53%
    04:00 +28°C° 0 mm 9 m/s 725 mmHg 55%
    05:00 +28°C° 0 mm 8 m/s 725 mmHg 57%
    06:00 +28°C° 0 mm 9 m/s 726 mmHg 55%
    07:00 +29°C° 0 mm 9 m/s 727 mmHg 52%
    08:00 +31°C° 0 mm 9 m/s 728 mmHg 49%
    09:00 +33°C° 0 mm 9 m/s 727 mmHg 44%
    10:00 +34°C° 0 mm 8 m/s 727 mmHg 39%
    11:00 +36°C° 0 mm 7 m/s 726 mmHg 33%
    12:00 +38°C° 0 mm 7 m/s 726 mmHg 32%
    13:00 +38°C° 0 mm 6 m/s 725 mmHg 30%
    14:00 +39°C° 0 mm 5 m/s 724 mmHg 28%
    15:00 +39°C° 0 mm 5 m/s 724 mmHg 28%
    16:00 +38°C° 0 mm 4 m/s 724 mmHg 28%
    17:00 +38°C° 0 mm 4 m/s 724 mmHg 27%
    18:00 +37°C° 0 mm 5 m/s 724 mmHg 29%
    19:00 +36°C° 0 mm 7 m/s 725 mmHg 30%
    20:00 +35°C° 0 mm 8 m/s 725 mmHg 31%
    21:00 +35°C° 0 mm 8 m/s 725 mmHg 34%
    22:00 +34°C° 0 mm 9 m/s 725 mmHg 36%
    23:00 +33°C° 0 mm 9 m/s 725 mmHg 39%

    5 Juin, Vendredi

    Heure Température Précipitation Vent Pression Humidité
    00:00 +32°C° 0 mm 9 m/s 725 mmHg 43%
    01:00 +32°C° 0 mm 9 m/s 725 mmHg 48%
    02:00 +31°C° 0 mm 9 m/s 725 mmHg 53%
    03:00 +29°C° 0 mm 9 m/s 725 mmHg 55%
    04:00 +29°C° 0 mm 8 m/s 726 mmHg 57%
    05:00 +28°C° 0 mm 8 m/s 726 mmHg 59%
    06:00 +29°C° 0 mm 8 m/s 727 mmHg 55%
    07:00 +31°C° 0 mm 8 m/s 727 mmHg 51%
    08:00 +32°C° 0 mm 8 m/s 728 mmHg 48%
    09:00 +33°C° 0 mm 8 m/s 728 mmHg 43%
    10:00 +35°C° 0 mm 7 m/s 727 mmHg 37%
    11:00 +38°C° 0 mm 7 m/s 727 mmHg 32%
    12:00 +38°C° 0 mm 6 m/s 726 mmHg 30%
    13:00 +39°C° 0 mm 5 m/s 725 mmHg 28%
    14:00 +40°C° 0 mm 4 m/s 725 mmHg 26%
    15:00 +40°C° 0 mm 4 m/s 724 mmHg 26%
    16:00 +38°C° 0 mm 4 m/s 724 mmHg 26%
    17:00 +38°C° 0 mm 4 m/s 724 mmHg 26%
    18:00 +39°C° 0 mm 5 m/s 724 mmHg 28%
    19:00 +38°C° 0 mm 7 m/s 725 mmHg 30%
    20:00 +37°C° 0 mm 8 m/s 725 mmHg 32%
    21:00 +35°C° 0 mm 9 m/s 725 mmHg 34%
    22:00 +34°C° 0 mm 9 m/s 725 mmHg 37%
    23:00 +34°C° 0 mm 9 m/s 725 mmHg 40%

    6 Juin, Samedi

    Heure Température Précipitation Vent Pression Humidité
    00:00 +33°C° 0 mm 9 m/s 725 mmHg 43%
    01:00 +32°C° 0 mm 9 m/s 725 mmHg 46%
    02:00 +31°C° 0 mm 8 m/s 725 mmHg 49%
    03:00 +29°C° 0 mm 8 m/s 725 mmHg 54%
    04:00 +29°C° 0 mm 8 m/s 726 mmHg 58%
    05:00 +28°C° 0 mm 8 m/s 726 mmHg 62%
    06:00 +29°C° 0 mm 8 m/s 727 mmHg 59%
    07:00 +31°C° 0 mm 8 m/s 727 mmHg 56%
    08:00 +32°C° 0 mm 8 m/s 728 mmHg 53%
    09:00 +33°C° 0 mm 8 m/s 727 mmHg 48%
    10:00 +34°C° 0 mm 7 m/s 727 mmHg 43%
    11:00 +36°C° 0 mm 7 m/s 727 mmHg 37%
    12:00 +38°C° 0 mm 6 m/s 726 mmHg 35%
    13:00 +37°C° 0 mm 5 m/s 725 mmHg 32%
    14:00 +38°C° 0 mm 4 m/s 724 mmHg 30%
    15:00 +38°C° 0 mm 4 m/s 724 mmHg 30%
    16:00 +38°C° 0 mm 4 m/s 724 mmHg 30%
    17:00 +38°C° 0 mm 4 m/s 724 mmHg 30%
    18:00 +37°C° 0 mm 5 m/s 724 mmHg 30%
    19:00 +37°C° 0 mm 5 m/s 724 mmHg 31%
    20:00 +36°C° 0 mm 6 m/s 725 mmHg 32%
    21:00 +35°C° 0 mm 7 m/s 724 mmHg 33%
    22:00 +34°C° 0 mm 8 m/s 724 mmHg 35%
    23:00 +34°C° 0 mm 9 m/s 724 mmHg 36%
    Voir plus